www.pogodaiklimat.ru

Погода и климат >> Архив погоды >> Россия >> Якутия >> Джикимда


АРХИВ ПОГОДЫ в Джикимде

Время (UTC), дата Ветер
(напр.,м/с)
 
Видим.   Явления Облачность Т
(С)
Тd
(С)
f
(%)
Тe
(С)
Тes
(С)
Комфортность P
(гПа)
Po
(гПа)
Тmin
(С)
Tmax
(С)
R
(мм)
R24
(мм)
S
(см)
09 18.08 штиль 0 50 км {ливн. осадки} 8/8 600 м
[Cb cap]
+15.6 +12.1 80 +15 +16 1005.8 985.2
12 18.08 штиль 0 50 км {ливн. осадки} 8/5 600 м
[Cb cap Ac trans]
+13.4 +11.9 91 +13 +13 1007.4 986.7 +17.5 0.3
15 18.08 З 1 50 км ясно +9.3 +9.1 99 +9 +9 1009.2 988.1
18 18.08 З 1 50 км ясно +4.4 +4.4 100 +3 +3 1010.8 989.2
21 18.08 штиль 0 200 м туман ?/? +9.1 +9.1 100 +8 +8 1011.3 990.2
00 19.08 СВ 1 2000 м туман 8/8 600 м
[Sc]
+9.6 +9.0 96 +9 +10 1011.7 990.6 +4.4
03 19.08 С 1 50 км {туман} 4/4 600 м
[Cu med, cong]
+16.1 +12.5 79 +17 +24 1010.9 990.2
06 19.08 СВ 1 50 км {туман} 6/5 600 м
[Cu med, cong Ci fib]
+21.6 +11.2 52 +24 +28 комфорт 1009.3 989.1
09 19.08 штиль 0 50 км 8/8 600 м
[Cu Sc]
+22.5 +11.9 51 +25 +25 комфорт 1009.0 988.9
12 19.08 штиль 0 50 км 10/10 600 м
[Cu Sc]
+17.8 +14.1 79 +18 +18 1009.9 989.4 +23.4
15 19.08 штиль 0 50 км 10/10 600 м
[Sc]
+13.4 +12.9 97 +13 +13 1010.3 989.5
18 19.08 штиль 0 50 км 10/10 600 м
[Sc]
+11.5 +11.1 97 +11 +11 1010.5 989.5
21 19.08 штиль 0 50 км 10/10 600 м
[Sc]
+11.3 +11.3 100 +11 +11 1011.0 989.8
00 20.08 штиль 0 50 км 10/10 600 м
[Sc]
+13.1 +12.7 97 +13 +13 1011.0 990.2 +11.1
03 20.08 З 1 50 км 8/4 600 м
[Cu med, cong Ac cast Ci fib]
+18.2 +14.0 76 +20 +24 1011.1 990.7
06 20.08 З 1 50 км 8/5 600 м
[Cb calv Ci fib]
+22.9 +12.8 53 +26 +30 жарко 1010.0 989.9
09 20.08 штиль 0 50 км 8/8 600 м
[Cb calv]
+24.2 +12.6 48 +26 +27 жарко 1009.4 989.3
12 20.08 СВ 2 50 км 10/10 600 м
[Sc]
+16.9 +14.5 86 +17 +17 1011.6 991.1 +25.1
15 20.08 штиль 0 50 км 3/3 1000 м
[Sc]
+14.6 +13.5 93 +14 +14 1012.3 991.6
18 20.08 штиль 0 50 км 3/3 1000 м
[Sc]
+12.4 +11.6 95 +12 +12 1012.9 991.9
21 20.08 штиль 0 50 км 5/5 1000 м
[Sc]
+11.8 +11.0 95 +11 +11 1014.1 993.0
00 21.08 штиль 0 50 км 8/0
[Cs]
+13.5 +11.0 85 +13 +18 1014.4 993.5 +10.6
03 21.08 СВ 1 50 км 10/3 600 м
[Cu med, cong Cs]
+21.2 +14.6 66 +24 +30 комфорт 1013.3 993.0
06 21.08 штиль 0 50 км 8/8 600 м
[Cu med, cong]
+25.6 +12.7 45 +27 +29 жарко 1012.2 992.2
09 21.08 штиль 0 50 км 8/8 600 м
[Cu Sc]
+22.7 +16.5 68 +27 +28 душно 1012.1 992.0
12 21.08 штиль 0 50 км 9/6 600 м
[Sc Ac und]
+17.2 +15.8 91 +17 +17 1012.8 992.3 +26.6
15 21.08 СВ 1 50 км 8/8 1000 м
[Sc]
+15.5 +13.7 89 +16 +16 1013.6 992.8
18 21.08 СВ 1 50 км 8/8 1000 м
[Sc]
+14.2 +12.6 90 +14 +14 1014.1 993.2
21 21.08 штиль 0 50 км 9/9 600 м
[Sc]
+11.3 +10.5 95 +11 +11 1014.4 993.3
00 22.08 штиль 0 50 км 10/10 600 м
[Sc]
+13.4 +12.5 94 +13 +13 1014.6 993.7 +10.3
03 22.08 СЗ 1 50 км 10/1 600 м
[Cu hum Ac cast Cs]
+18.2 +12.9 71 +20 +25 1013.8 993.2
06 22.08 З 1 50 км 10/3 600 м
[Cu Sc Ac cast Cs]
+22.5 +14.2 59 +26 +29 жарко 1012.1 992.0
09 22.08 штиль 0 50 км 10/8 600 м
[Cu Sc Cs]
+22.4 +16.1 68 +27 +27 душно 1012.4 992.3
12 22.08 СЗ 1 50 км 10/8 600 м
[Cb cap Cs]
+19.7 +14.8 73 +23 +23 комфорт 1013.1 992.6 +23.8
15 22.08 штиль 0 50 км 6/6 1000 м
[Sc]
+15.7 +14.8 94 +15 +15 1014.5 993.7
18 22.08 штиль 0 50 км 6/6 1000 м
[Sc]
+12.0 +11.4 96 +11 +11 1015.8 994.7
21 22.08 штиль 0 50 км туман ?/? +12.9 +12.9 100 +12 +12 1015.5 994.6
00 23.08 ЮЗ 1 1000 м туман ?/? +13.1 +12.7 97 +13 +13 1016.0 995.1 +11.9
03 23.08 Ю 1 50 км {туман} 3/0
[Ac trans]
+18.1 +13.9 76 +19 +28 1014.8 994.2
06 23.08 ЮЗ 1 50 км {туман} 5/5 600 м
[Cu med, cong]
+25.6 +7.6 32 +26 +30 жарко 1012.2 992.2
09 23.08 штиль 0 50 км 6/0
[Ac cast]
+25.2 +9.6 37 +26 +27 жарко 1011.1 991.1
12 23.08 штиль 0 50 км 9/0
[Ac trans]
+18.3 +15.1 82 +19 +19 1011.5 991.1 +26.6
15 23.08 ЮЗ 1 50 км 4/0
[Cs]
+14.3 +12.3 88 +15 +15 1012.0 991.2
18 23.08 Ю 1 50 км 5/0
[Cs]
+12.7 +11.8 94 +13 +13 1012.3 991.5
21 23.08 штиль 0 50 км ясно +8.5 +8.1 97 +8 +8 1012.3 991.0
00 24.08 штиль 0 2000 м дымка 3/0
[Ac cast]
+10.1 +9.5 96 +9 +13 1012.2 991.1 +7.2
03 24.08 штиль 0 50 км 9/0
[Ac cast Cs]
+19.3 +5.5 40 +20 +26 1010.0 989.6
06 24.08 З 1 50 км 8/3 600 м
[Sc Ci fib]
+24.3 +12.1 46 +26 +31 жарко 1008.1 988.0
09 24.08 штиль 0 50 км 8/0
[Cs]
+25.6 +14.0 49 +28 +30 жарко 1006.4 986.5
12 24.08 штиль 0 50 км 4/0
[Ac lent Cs]
+15.9 +14.9 94 +16 +16 1007.1 986.5 +26.6
15 24.08 Ю 1 50 км ясно +9.3 +9.1 99 +9 +9 1007.7 986.7
18 24.08 Ю 1 50 км ясно +5.9 +5.9 100 +5 +5 1008.1 986.8
21 24.08 штиль 0 <100 м туман ?/? +6.3 +6.3 100 +5 +5 1007.9 986.6
00 25.08 штиль 0 200 м туман ?/? +9.8 +9.6 99 +9 +9 1007.6 986.6 +4.8
03 25.08 СЗ 1 50 км {туман} 8/0
[Ac trans]
+17.1 +12.8 76 +18 +24 1006.3 985.9
06 25.08 С 2 50 км {туман} 8/3 600 м
[Cu hum Ac trans]
+23.3 +12.9 52 +26 +29 жарко 1005.1 985.1

 

Местоположение метеостанции Джикимда (Якутия, Россия): широта 59.02 долгота 121.70 высота над уровнем моря 175 м.

В архиве по умолчанию представлена погода в Джикимде за последнюю неделю. Архивные данные за месяц целиком и за предыдущие месяцы, начиная с января 2011 года, Вы можете получить, выбрав интересующий диапазон дат из раскрывающегося списка и нажав кнопку "Ввод!".


*Определитесь, кто Вы:
робот инопланетянин человек

Внимание! Время в таблицах - всемирное. Для получения местного времени необходимо прибавить поправку, которая равна 9 ч.

Смотрите также архив погоды в соседних городах и на ближайших метеорологических станциях:

Погода в Тяне (Якутия, Россия) (109 км)
Погода в Суон-Тите (Якутия, Россия) (157 км)
Погода в Олекминске (Якутия, Россия) (170 км)
Погода в Алдане (Якутия, Россия) (213 км)
Погода в Маче (Якутия, Россия) (253 км)
Погода в Килиере (Якутия, Россия) (253 км)
Погода в Томмоте (Якутия, Россия) (258 км)
Погода в Усть-Нюкже (Амурская область, Россия) (272 км)
Погода в Перевозе (Иркутская область, Россия) (275 км)
Погода в Исити (Якутия, Россия) (283 км)

Пояснения к столбцам:

Ветер - указаны скорость ветра в м/с - средняя за 10 мин, порывы в срок и между сроками (в фигурных скобках) и направление, откуда дует ветер: С - северный, СВ - северо-восточный, В - восточный, ЮВ - юго-восточный, Ю - южный, ЮЗ - юго-западный, З - западный, СЗ - северо-западный.
Видимость - горизонтальная дальность видимости в метрах или километрах. При видимости от 1 до 10 км при отсутствии осадков обычно наблюдается дымка, при ухудшении видимости до 1 км и менее - туман. В сухую погоду видимость может ухудшаться дымом, пылью или мглою.
Явления - указаны атмосферные явления, наблюдавшиеся в срок или в последний час перед сроком; фигурными скобками обозначены явления, наблюдавшиеся между сроками (за 1-3 часа до срока); квадратными скобками обозначены град или гололедные отложения с указанием их диаметра в мм.
Облачность - указаны через наклонную черту общая и нижняя облачность в баллах и высота нижней границы облаков в метрах; квадратными скобками обозначены формы облаков: Ci - перистые, Cs - перисто-слоистые, Cc - перисто-кучевые, Ac - высококучевые, As - высокослоистые, Sc - слоисто-кучевые, Ns - слоисто-дождевые, Cu - кучевые, Cb - кучево-дождевые. Подробнее классификацию облаков см. в Атласе облаков (PDF).
T - Температура воздуха - температура, измеренная на высоте 2 м над землей.
Td - Температура точки росы - температура, при понижении до которой содержащийся в воздухе водяной пар достигнет насыщения.
f - Относительная влажность воздуха - влажноcть воздуха, измеренная на высоте 2 м над землей.
Te - Эффективная температура - температура, которую ощущает одетый по сезону человек в тени. Характеристика душности погоды. При расчете учитывается влияние влажности воздуха и скорости ветра на теплоощущения человека.
Tes - Эффективная температура на солнце - температура, которую ощущает человек, с поправкой на солнечный нагрев. Характеристика знойности погоды. Зависит от высоты солнца над горизонтом, облачности и скорости ветра. Ночью, в пасмурную погоду, а также при ветре 12 м/с и более поправка равна нулю.
P - Атмосферное давление - приведенное к уровню моря атмосферное давление.
Po - Атмосферное давление - измеренное на уровне метеостанции атмосферное давление.
Tmin - Минимальная температура - минимум температуры воздуха на высоте 2 м над землей.
Tmax - Максимальная температура - максимум температуры воздуха на высоте 2 м над землей.
R - Количество осадков - Количество выпавших осадков за период времени, мм. При наведении курсора мыши на число - период времени, за который выпало указанное количество осадков.
R24 - Количество осадков - Количество выпавших осадков за 24 часа, мм.
S - Снежный покров - Высота снежного покрова, см. При наведении курсора мыши на число - состояние снежного покрова и степень покрытия местности в баллах.